Location: Holmbach
(49.5093°N, 8.8411°E)
Time: 15:51:18
(UTC+00:00)

Cosmos 2082 Rocket - Pass Details

Date: 17 June 2025
Orbit: 830 x 854 km, 71.0° (Epoch: 19 July)

Event Time Altitude Azimuth Distance (km) Brightness Sun altitude
Rises 23:16:16 0° 334° (NNW) 3,418 6.6 -17.1°
Reaches altitude 10° 23:19:11 10° 348° (NNW) 2,484 5.9 -17.1°
Maximum altitude 23:23:50 25° 43° (NE) 1,655 4.2 -17.1°
Drops below altitude 10° 23:28:30 10° 97° (E) 2,483 4.6 -17.1°
Sets 23:31:23 0° 111° (ESE) 3,418 5.2 -17.1°
